Location: *
(43.2756°N, 11.9881°E)
Time: 23:14:39
(UTC+00:00)

Daily predictions for brighter satellites

Satellite Brightness Start Highest point End
(mag) Time Altitude Azimuth Time Altitude Azimuth Time Altitude Azimuth
SKYMED 2 4.2 16:46:50 10° NNE 16:50:51 35° E 16:54:50 10° SSE
YAOGAN 1 3.5 16:49:09 10° SE 16:52:45 27° ENE 16:56:23 10° N
Cosmos 2285 Rocket 4.1 16:49:37 10° NNW 16:56:06 89° WSW 17:02:30 10° SSE
Meteor 2-10 4.5 16:51:32 10° SSE 16:56:11 37° E 17:00:47 10° NNE
H-2A R/B 3.4 16:57:43 10° S 17:01:35 64° W 17:05:29 10° NNW
Cosmos 1726 Rocket 3.5 16:59:01 10° S 17:03:24 75° E 17:07:46 10° NNE
SL-4 R/B 2.8 17:00:46 10° WNW 17:04:32 46° SW 17:08:01 10° SSE
Cosmos 2082 Rocket 3.6 17:01:04 10° N 17:05:13 20° NE 17:09:12 10° E
Cosmos 2228 3.0 17:00:53 10° S 17:05:15 83° E 17:09:38 10° N
YAOGAN 6 3.0 17:05:05 10° SE 17:08:34 42° ENE 17:12:02 10° N
CSL-04 Debris 4.5 17:03:35 10° SE 17:08:45 46° ENE 17:13:58 10° N
Envisat 2.9 17:04:57 10° SSE 17:10:00 75° ENE 17:15:05 10° N
Shenzhou-11 Module 1.7 17:08:17 10° W 17:11:03 83° S 17:13:13 15° E
Cosmos 1703 3.6 17:08:38 10° N 17:12:23 40° ENE 17:16:05 10° SSE
ASTEX 1 3.4 17:07:56 10° NNE 17:12:51 62° E 17:17:46 10° S
COSMOS 2406 3.3 17:07:32 10° NNW 17:13:15 59° ENE 17:18:54 10° SE
Cosmos 921 Rocket 3.1 17:10:08 10° SSW 17:14:39 87° WNW 17:19:08 10° NNE
EO 1 Delta rocket 4.3 17:10:35 10° SE 17:14:50 38° ENE 17:19:19 10° N
Cosmos 292 Rocket 3.7 17:12:36 10° S 17:17:17 64° ESE 17:22:00 10° NNE
Cosmos 1844 Rocket 3.7 17:15:44 10° SW 17:21:12 49° WNW 17:26:41 10° NNE
Cosmos 2058 Rocket 2.9 17:16:56 10° S 17:21:16 76° E 17:25:38 10° NNE
Cosmos 1356 3.3 17:19:06 10° S 17:22:31 70° E 17:25:57 10° NNE
Cosmos 1953 3.9 17:20:10 10° SSW 17:24:00 40° WNW 17:27:51 10° N
Okean-O 4.0 17:24:54 10° S 17:29:06 42° W 17:33:20 10° NNW
FengYun 1-2 T 4.3 17:25:46 10° SSE 17:31:25 90° E 17:37:04 10° NNW
USA 116 3.2 17:30:15 10° NNE 17:33:25 61° ESE 17:36:47 10° S
Meteor 1-11 4.2 17:28:15 10° N 17:34:00 67° ENE 17:39:46 10° SSE
Meteor 1-16 Rocket 4.4 17:30:10 10° SSW 17:35:43 74° W 17:41:09 10° N
BREEZE-M DEB (TANK) 3.9 17:32:49 10° NW 17:37:18 67° NNE 17:47:34 15° ESE
COSMO-SKYMED 1 2.9 17:34:41 10° N 17:39:01 69° WNW 17:43:19 10° SSW
Lacrosse 5 2.8 17:34:49 10° NW 17:39:22 32° NNE 17:41:43 22° ENE
USA 238 DEB 4.0 17:33:39 10° S 17:39:52 44° ESE 17:46:17 10° NE
USA 238 4.0 17:33:46 10° S 17:39:59 43° ESE 17:46:24 10° NE
Cosmos 1908 3.1 17:36:11 10° S 17:40:05 77° E 17:43:59 10° N
Cosmos 1605 Rocket 3.9 17:34:15 10° N 17:40:26 69° E 17:46:30 10° SSE
Cosmos 2278 Rocket 2.1 17:39:24 10° SSW 17:45:01 67° ESE 17:50:40 10° NNE
ATLAS 5 CENTAUR R/B 4.0 17:43:56 10° W 17:47:07 19° NNW 17:50:35 10° NNE
OAO 3 Rocket 4.5 17:43:37 10° WSW 17:47:56 31° S 17:50:39 19° SE
Cosmos 1727 Rocket 4.0 17:42:21 10° SSE 17:48:18 53° E 17:54:17 10° NNE
Cosmos 1934 Rocket 4.4 17:42:55 10° NNW 17:49:13 69° W 17:55:30 10° S
IRS-1A Rocket 4.4 17:45:46 10° SE 17:51:00 47° ENE 17:56:15 10° N
Ariane Rocket 3.1 17:47:42 10° SE 17:52:38 53° ENE 17:57:36 10° N
Lacrosse 5 rocket 3.7 17:51:32 10° WNW 17:54:25 20° SW 17:57:25 10° S
Cosmos 1939 Rocket 2.7 17:53:43 10° SSE 17:57:38 66° ENE 18:01:40 10° N
Cosmos 2173 Rocket 4.4 17:54:19 10° N 18:00:07 38° ENE 18:02:39 27° ESE
Abrixas rocket 1.9 17:57:25 10° WSW 18:00:29 81° NNW 18:00:46 69° NE
Unknown 3.8 18:00:43 10° WNW 18:03:10 34° SW 18:03:32 32° SSW
Cosmos 1461 3.0 17:59:45 10° NNW 18:03:46 53° NE 18:04:27 47° E
CSL-04 Rocket 4.2 17:59:13 10° S 18:04:41 61° WSW 18:10:09 10° NNW
NOSS 3-2 (A) 3.5 17:59:31 10° SSW 18:05:00 51° ESE 18:08:33 24° NE
Cosmos 1726 4.2 18:04:27 10° SW 18:07:40 29° WNW 18:10:54 10° NNW
Unknown 3.1 18:09:30 10° NW 18:12:18 69° NW 18:12:18 69° NW
HJ-1C 4.2 18:14:01 40° N 18:14:01 40° N 18:16:21 10° N
NOAA 11 4.2 18:09:29 10° SSE 18:14:56 83° WSW 18:20:24 10° NNW
Cosmos 1777 Rocket 4.5 18:10:18 10° NNW 18:15:27 61° WSW 18:20:33 10° S
SPOT 3 Rocket 4.3 18:17:56 34° NE 18:17:56 34° NE 18:21:57 10° N
ARGOS 4.2 18:19:44 28° NE 18:19:44 28° NE 18:23:19 10° N
Cosmos 1812 Rocket 3.5 18:14:57 10° S 18:19:23 89° W 18:23:52 10° N
Cosmos 2100 Rocket 3.9 18:16:35 10° N 18:22:43 60° E 18:25:37 31° SSE
CZ-4 R/B 3.8 18:19:21 10° SSW 18:22:47 25° W 18:26:17 10° NW
SJ-11-01 4.4 18:24:11 54° ENE 18:24:11 54° ENE 18:28:29 10° N
Cosmos 1833 Rocket 2.7 18:20:00 10° NNW 18:25:37 81° WSW 18:28:56 26° SSE
Cosmos 1076 Rocket 3.3 18:22:11 10° N 18:26:35 83° E 18:27:01 71° SSE
CZ-2D R/B 4.2 18:23:18 10° S 18:27:00 47° W 18:30:46 10° NNW
BREEZE-M DEB (TANK) 2.7 18:17:23 10° WSW 18:27:18 87° NNW 18:28:00 62° ENE
NOSS 3-2 (C) 3.5 18:23:16 10° S 18:28:34 48° ESE 18:28:34 48° ESE
H-2A R/B 2.9 18:35:44 37° NNE 18:35:44 37° NNE 18:39:32 10° N
Meteor 2-1 Rocket 4.0 18:37:47 10° S 18:43:16 78° E 18:48:50 10° NNE
BREEZE-M DEB (TANK) 4.3 18:40:31 10° W 18:42:39 27° WNW 18:42:39 27° WNW
Cosmos 2016 Rocket 4.1 18:38:04 10° N 18:43:50 56° ENE 18:43:50 56° ENE
ADEOS Rocket 3.4 18:40:06 10° NNE 18:47:43 61° E 18:54:45 10° S
Cosmos 2082 Rocket 2.3 18:44:14 10° NNW 18:49:56 75° WSW 18:51:05 57° S
Cosmos 1898 Rocket 4.3 18:53:07 10° NNW 18:56:42 42° N 18:56:42 42° N
Gbstr 26 Del rocket 4.1 18:52:14 10° WNW 18:58:44 82° SW 18:59:47 67° SE
ATLAS 3B R/B 3.4 18:57:23 10° SSW 19:01:17 36° S 19:01:17 36° S
Cosmos 2061 Rocket 3.9 18:58:14 10° N 19:04:09 79° NNE 19:04:09 79° NNE
CZ-2C R/B 4.5 19:12:03 32° N 19:12:03 32° N 19:15:09 10° N
CENTAUR R/B 3.8 19:09:02 10° SSW 19:11:09 24° SSW 19:11:09 24° SSW
SJ 16-02 3.9 19:16:47 10° NNW 19:17:24 14° NNW 19:17:24 14° NNW
Lacrosse 5 3.1 19:17:38 10° NW 19:20:56 39° WNW 19:20:56 39° WNW
Cosmos 2278 Rocket 4.4 19:25:20 10° W 19:29:37 22° NW 19:33:57 10° N
H-2A R/B 4.5 20:16:22 19° NW 20:16:22 19° NW 20:18:27 10° NW
